Location: Unspecified
(0.0000°N, 0.0000°E)
Time: 16:24:30
(UTC+00:00)

Explorer 11/Cluster Stage 4 - Pass Details

Date: 27 November 2019
Orbit: 467 x 1259 km, 28.8° (Epoch: 12 December)

Event Time Altitude Azimuth Distance (km) Brightness Sun altitude
Rises 09:18:20 0° 210° (SSW) 3,574 10.0 47.9°
Reaches altitude 10° 09:24:11 10° 168° (SSE) 2,343 9.6 49.1°
Maximum altitude 09:24:47 10° 162° (SSE) 2,301 9.6 49.3°
Drops below altitude 10° 09:25:23 10° 156° (SSE) 2,283 9.7 49.4°
Sets 09:30:19 0° 111° (ESE) 2,948 10.2 50.4°
